| time (UTC) | temp F | wind direction | speed MPH | gust MPH | rain 1hr in | rain 24hr in | rain mn in | humidity % | barometer mb |
| 20260505041521 | 42 | 320 | 7.0 | 12.0 | 0.00 | 0.13 | 0.00 | 83 | 1002.8 |
| 20260505040021 | 42 | 286 | 7.0 | 11.0 | 0.00 | 0.13 | 0.00 | 81 | 1002.5 |
| 20260505034521 | 43 | 279 | 10.0 | 16.0 | 0.00 | 0.13 | 0.00 | 80 | 1002.3 |
| 20260505033013 | 43 | 277 | 5.0 | 11.0 | 0.00 | 0.13 | 0.00 | 79 | 1002.2 |
| 20260505031512 | 44 | 283 | 7.0 | 13.0 | 0.00 | 0.13 | 0.00 | 77 | 1002.0 |
| 20260505030007 | 44 | 258 | 9.0 | 13.0 | 0.00 | 0.13 | 0.00 | 75 | 1001.8 |
| 20260505024503 | 45 | 281 | 7.0 | 21.0 | 0.00 | 0.13 | 0.00 | 72 | 1001.6 |
| 20260505023103 | 46 | 264 | 11.0 | 17.0 | 0.00 | 0.13 | 0.00 | 73 | 1001.5 |
| 20260505021558 | 46 | 252 | 6.0 | 11.0 | 0.00 | 0.13 | 0.00 | 71 | 1001.2 |
| 20260505020055 | 46 | 227 | 6.0 | 11.0 | 0.00 | 0.13 | 0.00 | 69 | 1001.1 |
| 20260505014551 | 46 | 225 | 6.0 | 15.0 | 0.00 | 0.13 | 0.00 | 67 | 1000.9 |
| 20260505013051 | 47 | 218 | 6.0 | 10.0 | 0.00 | 0.13 | 0.00 | 65 | 1000.7 |
| 20260505011604 | 47 | 227 | 8.0 | 14.0 | 0.00 | 0.13 | 0.00 | 63 | 1000.8 |
| 20260505010046 | 47 | 215 | 9.0 | 17.0 | 0.00 | 0.13 | 0.00 | 62 | 1000.6 |
| 20260505004540 | 48 | 199 | 7.0 | 12.0 | 0.00 | 0.13 | 0.00 | 59 | 1000.6 |
| 20260505003037 | 48 | 183 | 6.0 | 10.0 | 0.00 | 0.13 | 0.00 | 59 | 1000.5 |
| 20260505001535 | 48 | 209 | 10.0 | 15.0 | 0.00 | 0.13 | 0.00 | 57 | 1000.4 |
| 20260505000038 | 49 | 215 | 8.0 | 16.0 | 0.00 | 0.13 | 0.00 | 56 | 1000.3 |
| 20260504234531 | 49 | 189 | 8.0 | 14.0 | 0.00 | 0.13 | 0.00 | 55 | 1000.5 |
| 20260504233027 | 49 | 219 | 7.0 | 12.0 | 0.00 | 0.13 | 0.00 | 54 | 1000.5 |
| 20260504231524 | 49 | 200 | 7.0 | 12.0 | 0.00 | 0.13 | 0.00 | 53 | 1000.6 |
| 20260504230021 | 50 | 197 | 7.0 | 15.0 | 0.00 | 0.13 | 0.00 | 53 | 1000.6 |
| 20260504224518 | 50 | 197 | 7.0 | 13.0 | 0.00 | 0.13 | 0.00 | 53 | 1000.8 |
| 20260504223020 | 50 | 213 | 7.0 | 11.0 | 0.00 | 0.13 | 0.00 | 53 | 1000.9 |
| 20260504221513 | 49 | 146 | 7.0 | 12.0 | 0.00 | 0.13 | 0.00 | 55 | 1001.0 |
| 20260504220009 | 50 | 221 | 5.0 | 11.0 | 0.00 | 0.13 | 0.00 | 53 | 1001.1 |
| 20260504214510 | 51 | 188 | 5.0 | 13.0 | 0.00 | 0.13 | 0.13 | 53 | 1001.1 |
| 20260504213008 | 51 | 196 | 6.0 | 12.0 | 0.00 | 0.13 | 0.13 | 53 | 1001.1 |
| 20260504211507 | 51 | 215 | 7.0 | 12.0 | 0.00 | 0.13 | 0.13 | 53 | 1001.2 |
| 20260504210010 | 51 | 190 | 6.0 | 12.0 | 0.00 | 0.13 | 0.13 | 54 | 1001.3 |
| 20260504204508 | 51 | 215 | 5.0 | 11.0 | 0.00 | 0.13 | 0.13 | 55 | 1001.3 |
| 20260504203004 | 51 | 204 | 6.0 | 12.0 | 0.00 | 0.13 | 0.13 | 57 | 1001.3 |
| 20260504201504 | 51 | 175 | 5.0 | 10.0 | 0.00 | 0.13 | 0.13 | 59 | 1001.3 |
| 20260504200002 | 51 | 188 | 4.0 | 7.0 | 0.00 | 0.13 | 0.13 | 63 | 1001.1 |
| 20260504194501 | 50 | 167 | 5.0 | 7.0 | 0.00 | 0.13 | 0.13 | 67 | 1001.2 |
| 20260504193002 | 51 | 169 | 4.0 | 8.0 | 0.00 | 0.13 | 0.13 | 68 | 1001.1 |
| 20260504191614 | 51 | 155 | 4.0 | 8.0 | 0.00 | 0.13 | 0.13 | 69 | 1001.1 |
| 20260504190104 | 51 | 162 | 4.0 | 6.0 | 0.00 | 0.13 | 0.13 | 70 | 1001.1 |
| 20260504184559 | 51 | 168 | 4.0 | 7.0 | 0.00 | 0.13 | 0.13 | 70 | 1001.1 |
| 20260504183100 | 52 | 211 | 4.0 | 9.0 | 0.00 | 0.13 | 0.13 | 68 | 1001.1 |
| 20260504181601 | 53 | 211 | 5.0 | 9.0 | 0.00 | 0.13 | 0.13 | 67 | 1001.0 |
| 20260504180057 | 53 | 230 | 5.0 | 10.0 | 0.00 | 0.13 | 0.13 | 66 | 1001.1 |
| 20260504174557 | 54 | 202 | 8.0 | 12.0 | 0.00 | 0.13 | 0.13 | 65 | 1001.1 |
| 20260504173057 | 54 | 207 | 11.0 | 18.0 | 0.00 | 0.13 | 0.13 | 63 | 1001.0 |
| 20260504171556 | 54 | 194 | 8.0 | 15.0 | 0.00 | 0.13 | 0.13 | 61 | 1001.1 |
| 20260504100104 | 49 | 208 | 5.0 | 8.0 | 0.00 | 0.13 | 0.13 | 90 | 1001.7 |
| 20260504090104 | 46 | 170 | 3.0 | 8.0 | 0.00 | 0.13 | 0.13 | 92 | 1002.1 |
| 20260504081541 | 44 | 236 | 1.0 | 4.0 | 0.01 | 0.13 | 0.13 | 92 | 1002.3 |